Location: Cheyres
(46.8153°N, 6.7877°E)
Time: 23:15:56
(UTC+00:00)

QB50P2 - Pass Details

Date: 30 June 2022
Orbit: 590 x 605 km, 97.9° (Epoch: 07 August)

Event Time Altitude Azimuth Distance (km) Brightness Sun altitude
Rises 01:30:42 0° 8° (N) 2,858 ? -15.4°
Reaches altitude 10° 01:32:55 10° 2° (N) 1,953 ? -15.2°
Maximum altitude 01:36:59 47° 289° (WNW) 803 ? -14.9°
Enters shadow 01:39:14 24° 227° (SW) 1,267 ? -14.7°
